Location: Vancouver
(49.2500°N, 123.1330°W)
Time: 09:55:49
(UTC-07:00)

YAOGAN 6 - Visible Passes

Search period start: 01 July 2015 00:00
Search period end: 11 July 2015 00:00
Orbit: 475 x 516 km, 97.2° (Epoch: 01 July)

Date Brightness Start Highest point End Pass type
(mag) Time Alt. Az. Time Alt. Az. Time Alt. Az.
01 Jul 5.3 00:00:24 10° WSW 00:01:53 12° W 00:03:12 10° WNW visible
01 Jul 3.5 22:03:34 10° SE 22:06:51 35° ENE 22:10:13 10° N visible
01 Jul 4.8 23:38:00 10° SW 23:40:43 20° W 23:43:24 10° NW visible
02 Jul 4.0 23:16:34 11° SSW 23:19:38 32° W 23:22:58 10° NNW visible
03 Jul 3.1 22:55:27 13° S 22:58:38 57° W 23:02:16 10° NNW visible
04 Jul 2.6 22:34:20 12° SSE 22:37:42 80° ENE 22:41:24 10° N visible
05 Jul 3.1 22:13:21 10° SE 22:16:49 45° ENE 22:20:22 10° N visible
05 Jul 5.1 23:48:33 10° SW 23:50:51 16° W 23:53:03 10° NW visible
06 Jul 4.4 23:26:42 10° SSW 23:29:43 25° W 23:32:49 10° NW visible
07 Jul 3.5 23:05:34 13° S 23:08:39 43° W 23:12:13 10° NNW visible
08 Jul 2.7 22:44:27 13° S 22:47:41 77° W 22:51:24 10° NNW visible
09 Jul 2.8 22:23:20 11° SSE 22:26:46 60° ENE 22:30:26 10° N visible
09 Jul 5.3 23:59:19 10° WSW 00:00:56 12° W 00:02:26 10° WNW visible
10 Jul 3.5 22:02:33 10° SE 22:05:54 35° ENE 22:09:20 10° N visible
10 Jul 4.8 23:36:57 10° SW 23:39:45 20° W 23:42:32 10° NW visible
